Overview Statistics Trail Chart Weather Telemetry Raw packets
 

This is the latest recevied weather packets stored in our database for station/object Kirchdorf. If no packets are shown the sender has not sent any weather packets the latest 10 day(s).

<< 16 17 18 19 >>
Time Temp. Humidity Pressure Rain* Wind** Luminosity Snow
1787760131 27.22° C 59% 1015 hPa 0 mm - - -
1787758331 27.22° C 56% 1015 hPa 0 mm - - -
1787756530 27.22° C 56% 1015.4 hPa 0 mm - - -
1787754731 27.78° C 57% 1015.7 hPa 0 mm - - -
1787752930 27.22° C 58% 1015.8 hPa 0 mm - - -
1787751131 27.78° C 57% 1016 hPa 0 mm - - -
1787749330 27.22° C 57% 1016.5 hPa 0 mm - - -
1787747533 27.78° C 57% 1016.4 hPa 0 mm - - -
1787745730 27.22° C 60% 1016.5 hPa 0 mm - - -
1787743931 26.11° C 67% 1016.6 hPa 0 mm - - -
1787742134 25° C 69% 1016.8 hPa 0 mm - - -
1787740330 24.44° C 69% 1017.1 hPa 0 mm - - -
1787738530 23.33° C 73% 1017.4 hPa 0 mm - - -
1787736730 22.78° C 76% 1017.5 hPa 0 mm - - -
1787734930 21.67° C 79% 1017.7 hPa 0 mm - - -
1787733130 20.56° C 82% 1017.6 hPa 0 mm - - -
1787731330 20° C 83% 1017.5 hPa 0 mm - - -
1787729531 18.89° C 89% 1017.4 hPa 0 mm - - -
1787727730 17.22° C 96% 1017.7 hPa 0 mm - - -
1787725929 16.67° C 98% 1017.1 hPa 0 mm - - -
1787724130 15.56° C 98% 1017.1 hPa 0 mm - - -
1787722332 15.56° C 98% 1017 hPa 0 mm - - -
1787720529 15.56° C 98% 1017.1 hPa 0 mm - - -
1787718729 15.56° C 98% 1016.7 hPa 0 mm - - -

* Rain since midnight (hover to see other rain measurements)
** Current wind speed in m/s (hover to see current wind gust speed)